DAL7752 RJGG-OTBD

Flight info

Callsign DAL7752
Flight time N/A
Altitude 38000
Route YME Y18 MIHOU Y38 SAPRA G585 SEL G597 AGAVO/K0915S1160 A591 IKEKA W4 HCH W200 DOVIV W55 PAMRU/K0911S1220 W34 VYK B215 NIRUV W199 ALGOT V67 JSG W619 BILDA W112 PURPA/N0490F400 G325 ZB J133 PARLO G325 PG T385 TAPDO/N0484F430 A454 PASOV M564 VAXAS DCT GERUL DCT TOSNA
Aircraft A359/H-SDE2E3GHIJ3J4J5LM1ORWXY/LB1D1

Departure

Time N/A
Airport Chubu Centrair International Airport (RJGG)

Arrival

Time 2026-05-08 03:01
Airport Doha International Airport (OTBD)
Time Latitude Longitude Altitude Speed Heading
2026-05-07 22:08 38.83578 90.64626 40344 ft 483 kts 260°
2026-05-07 22:09 38.82499 90.56126 40344 ft 483 kts 260°
2026-05-07 22:09 38.81408 90.47630 40344 ft 483 kts 259°
2026-05-07 22:10 38.80319 90.39196 40338 ft 483 kts 259°
2026-05-07 22:10 38.79218 90.30698 40339 ft 483 kts 259°
2026-05-07 22:11 38.78111 90.22201 40330 ft 484 kts 259°
2026-05-07 22:11 38.76998 90.13697 40317 ft 484 kts 259°
2026-05-07 22:12 38.75878 90.05199 40317 ft 484 kts 259°
2026-05-07 22:12 38.74752 89.96703 40312 ft 484 kts 259°
2026-05-07 22:13 38.73619 89.88199 40311 ft 484 kts 259°
2026-05-07 22:13 38.72480 89.79701 40311 ft 484 kts 259°
2026-05-07 22:14 38.71334 89.71199 40311 ft 484 kts 259°
2026-05-07 22:14 38.69781 89.62816 40305 ft 484 kts 250°
2026-05-07 22:15 38.67312 89.54794 40302 ft 485 kts 246°
2026-05-07 22:15 38.64653 89.46847 40337 ft 486 kts 246°
2026-05-07 22:16 38.62002 89.38887 40325 ft 486 kts 247°
2026-05-07 22:16 38.59381 89.30917 40332 ft 486 kts 247°
2026-05-07 22:17 38.56767 89.22941 40310 ft 486 kts 247°
2026-05-07 22:17 38.54147 89.14964 40338 ft 487 kts 247°
2026-05-07 22:18 38.50205 89.03011 40343 ft 487 kts 247°
2026-05-07 22:19 38.47571 88.95050 40342 ft 487 kts 246°
2026-05-07 22:19 38.44927 88.87089 40358 ft 487 kts 246°
2026-05-07 22:20 38.42277 88.79133 40353 ft 488 kts 246°
2026-05-07 22:20 38.39618 88.71169 40343 ft 488 kts 246°
2026-05-07 22:21 38.36953 88.63201 40364 ft 489 kts 246°
2026-05-07 22:21 38.34281 88.55237 40353 ft 489 kts 246°
2026-05-07 22:22 38.31604 88.47278 40353 ft 489 kts 246°
2026-05-07 22:22 38.28919 88.39322 40339 ft 489 kts 246°
2026-05-07 22:23 38.26227 88.31362 40346 ft 490 kts 246°
2026-05-07 22:23 38.23530 88.23412 40349 ft 489 kts 246°
2026-05-07 22:24 38.20827 88.15463 40331 ft 489 kts 246°
2026-05-07 22:24 38.18138 88.07579 40325 ft 490 kts 246°
2026-05-07 22:25 38.15420 87.99630 40340 ft 490 kts 246°
2026-05-07 22:25 38.12697 87.91688 40342 ft 491 kts 246°
2026-05-07 22:26 38.09963 87.83739 40322 ft 491 kts 246°
2026-05-07 22:26 38.07225 87.75798 40358 ft 491 kts 246°
2026-05-07 22:27 38.04484 87.67872 40339 ft 491 kts 246°
2026-05-07 22:27 38.01736 87.59939 40342 ft 492 kts 245°
2026-05-07 22:28 37.98978 87.52005 40318 ft 492 kts 246°
2026-05-07 22:28 37.96215 87.44076 40356 ft 492 kts 245°
2026-05-07 22:29 37.93444 87.36147 40343 ft 492 kts 245°
2026-05-07 22:29 37.90668 87.28225 40341 ft 492 kts 245°
2026-05-07 22:30 37.87887 87.20307 40327 ft 492 kts 245°
2026-05-07 22:30 37.85100 87.12397 40357 ft 492 kts 245°
2026-05-07 22:31 37.82309 87.04493 40345 ft 492 kts 245°
2026-05-07 22:31 37.79530 86.96646 40346 ft 492 kts 245°
2026-05-07 22:32 37.76728 86.88754 40356 ft 493 kts 245°
2026-05-07 22:32 37.73913 86.80844 40356 ft 493 kts 245°
2026-05-07 22:33 37.71093 86.72943 40346 ft 493 kts 245°
2026-05-07 22:33 37.68267 86.65048 40346 ft 493 kts 245°
2026-05-07 22:34 37.65437 86.57159 40348 ft 493 kts 245°
2026-05-07 22:34 37.62604 86.49284 40360 ft 493 kts 245°
2026-05-07 22:35 37.59766 86.41412 40331 ft 493 kts 245°
2026-05-07 22:35 37.56920 86.33543 40283 ft 493 kts 245°
2026-05-07 22:36 37.54071 86.25686 40330 ft 493 kts 245°
2026-05-07 22:36 37.51699 86.19161 40313 ft 493 kts 244°
2026-05-07 22:37 37.48839 86.11315 40288 ft 493 kts 245°
2026-05-07 22:37 37.45978 86.03476 40290 ft 493 kts 245°
2026-05-07 22:38 37.43111 85.95645 40339 ft 493 kts 245°
2026-05-07 22:38 37.40238 85.87818 40292 ft 493 kts 245°
2026-05-07 22:39 37.37366 85.80017 40307 ft 491 kts 244°
2026-05-07 22:39 37.34496 85.72239 40327 ft 490 kts 244°
2026-05-07 22:40 37.31625 85.64478 40327 ft 489 kts 244°
2026-05-07 22:40 37.28772 85.56780 40298 ft 490 kts 244°
2026-05-07 22:41 37.25890 85.49028 40296 ft 490 kts 244°
2026-05-07 22:41 37.23002 85.41285 40318 ft 490 kts 244°
2026-05-07 22:42 37.20102 85.33525 40327 ft 492 kts 244°
2026-05-07 22:42 37.17196 85.25764 40303 ft 492 kts 244°
2026-05-07 22:43 37.14284 85.18010 40306 ft 492 kts 244°
2026-05-07 22:43 37.11367 85.10259 40326 ft 491 kts 244°
2026-05-07 22:44 37.08453 85.02540 40332 ft 490 kts 244°
2026-05-07 22:44 37.05533 84.94820 40312 ft 491 kts 244°
2026-05-07 22:45 37.02603 84.87093 40364 ft 491 kts 244°
2026-05-07 22:45 36.99669 84.79378 40347 ft 491 kts 244°
2026-05-07 22:46 36.96729 84.71666 40345 ft 491 kts 244°
2026-05-07 22:46 36.93787 84.63966 40323 ft 491 kts 244°
2026-05-07 22:47 36.90834 84.56256 40374 ft 492 kts 244°
2026-05-07 22:47 36.87874 84.48547 40355 ft 492 kts 244°
2026-05-07 22:48 36.84907 84.40839 40351 ft 492 kts 244°
2026-05-07 22:48 36.81940 84.33157 40329 ft 491 kts 244°
2026-05-07 22:49 36.78970 84.25477 40379 ft 492 kts 244°
2026-05-07 22:49 36.75988 84.17785 40357 ft 493 kts 244°
2026-05-07 22:50 36.72999 84.10095 40359 ft 493 kts 244°
2026-05-07 22:50 36.70024 84.02462 40337 ft 493 kts 244°
2026-05-07 22:51 36.67003 83.94728 40378 ft 493 kts 243°
2026-05-07 22:51 36.64020 83.87111 40353 ft 493 kts 244°
2026-05-07 22:52 36.61009 83.79436 40357 ft 494 kts 243°
2026-05-07 22:52 36.57989 83.71761 40376 ft 494 kts 243°
2026-05-07 22:53 36.54966 83.64099 40382 ft 493 kts 243°
2026-05-07 22:53 36.51943 83.56451 40371 ft 493 kts 243°
2026-05-07 22:54 36.48912 83.48803 40365 ft 494 kts 243°
2026-05-07 22:54 36.45870 83.41146 40412 ft 494 kts 243°
2026-05-07 22:55 36.42825 83.33499 40417 ft 494 kts 243°
2026-05-07 22:55 36.39774 83.25853 40405 ft 494 kts 243°
2026-05-07 22:56 36.36720 83.18219 40405 ft 494 kts 243°
2026-05-07 22:56 36.33662 83.10594 40462 ft 494 kts 243°
2026-05-07 22:57 36.30615 83.03017 40447 ft 494 kts 243°
2026-05-07 22:57 36.27542 82.95387 40442 ft 495 kts 243°
2026-05-07 22:58 36.24463 82.87765 40458 ft 495 kts 243°
2026-05-07 22:58 36.21380 82.80151 40463 ft 495 kts 243°
2026-05-07 22:59 36.18292 82.72542 40474 ft 495 kts 243°
2026-05-07 22:59 36.15196 82.64929 40454 ft 495 kts 243°
2026-05-07 23:00 36.12091 82.57316 40470 ft 495 kts 243°
2026-05-07 23:00 36.08987 82.49719 40460 ft 495 kts 243°
2026-05-07 23:01 36.05874 82.42120 40461 ft 495 kts 243°
2026-05-07 23:01 36.02757 82.34530 40442 ft 496 kts 243°
2026-05-07 23:02 35.99629 82.26928 40463 ft 496 kts 243°
2026-05-07 23:02 35.96498 82.19337 40466 ft 496 kts 243°
2026-05-07 23:03 35.93365 82.11758 40464 ft 496 kts 243°
2026-05-07 23:03 35.90227 82.04187 40456 ft 495 kts 243°
2026-05-07 23:04 35.87087 81.96625 40472 ft 495 kts 243°
2026-05-07 23:04 35.83946 81.89081 40464 ft 495 kts 243°
2026-05-07 23:05 35.80795 81.81528 40467 ft 496 kts 243°
2026-05-07 23:05 35.77658 81.74028 40466 ft 496 kts 243°
2026-05-07 23:06 35.74494 81.66482 40484 ft 496 kts 243°
2026-05-07 23:06 35.71326 81.58942 40488 ft 497 kts 243°
2026-05-07 23:07 35.68149 81.51397 40487 ft 496 kts 243°
2026-05-07 23:07 35.64969 81.43865 40504 ft 496 kts 243°
2026-05-07 23:08 35.61786 81.36341 40502 ft 496 kts 243°
2026-05-07 23:08 35.58601 81.28827 40504 ft 496 kts 243°
2026-05-07 23:09 35.55405 81.21306 40504 ft 497 kts 243°
2026-05-07 23:09 35.52197 81.13774 40507 ft 498 kts 243°
2026-05-07 23:10 35.49003 81.06287 40956 ft 489 kts 243°
2026-05-07 23:10 35.47433 81.02613 41288 ft 484 kts 243°
2026-05-07 23:10 35.45873 80.98961 41492 ft 483 kts 243°
2026-05-07 23:10 35.44313 80.95312 41650 ft 483 kts 243°
2026-05-07 23:11 35.42754 80.91671 41755 ft 482 kts 243°
2026-05-07 23:11 35.39625 80.84377 41866 ft 484 kts 243°
2026-05-07 23:11 35.38059 80.80735 42055 ft 482 kts 243°
2026-05-07 23:12 35.36497 80.77108 42186 ft 481 kts 243°
2026-05-07 23:12 35.34933 80.73481 42301 ft 481 kts 243°
2026-05-07 23:12 35.33368 80.69857 42417 ft 481 kts 243°
2026-05-07 23:13 35.30231 80.62602 42496 ft 482 kts 243°
2026-05-07 23:13 35.27090 80.55353 42476 ft 482 kts 243°
2026-05-07 23:14 35.23943 80.48107 42477 ft 482 kts 243°
2026-05-07 23:14 35.20784 80.40849 42468 ft 485 kts 243°
2026-05-07 23:15 35.17594 80.33539 42466 ft 489 kts 243°
2026-05-07 23:15 35.14382 80.26196 42454 ft 491 kts 243°
2026-05-07 23:16 35.11152 80.18828 42453 ft 493 kts 243°
2026-05-07 23:16 35.07911 80.11449 42448 ft 493 kts 243°
2026-05-07 23:17 35.04666 80.04075 42453 ft 494 kts 243°
2026-05-07 23:17 35.01412 79.96698 42455 ft 494 kts 243°
2026-05-07 23:18 34.98174 79.89370 42455 ft 494 kts 243°
2026-05-07 23:18 34.94909 79.81999 42465 ft 494 kts 243°
2026-05-07 23:19 34.91639 79.74631 42465 ft 494 kts 243°
2026-05-07 23:19 34.88361 79.67261 42486 ft 495 kts 243°
2026-05-07 23:20 34.85079 79.59899 42487 ft 495 kts 243°
2026-05-07 23:20 34.81791 79.52539 42503 ft 495 kts 243°
2026-05-07 23:21 34.78500 79.45188 42505 ft 495 kts 243°
2026-05-07 23:21 34.75207 79.37849 42526 ft 494 kts 243°
2026-05-07 23:22 34.71913 79.30521 42527 ft 494 kts 243°
2026-05-07 23:22 34.68614 79.23196 42538 ft 494 kts 243°
2026-05-07 23:23 34.65309 79.15876 42538 ft 494 kts 243°
2026-05-07 23:23 34.62003 79.08568 42549 ft 494 kts 243°
2026-05-07 23:24 34.58691 79.01268 42547 ft 494 kts 243°
2026-05-07 23:24 34.55371 78.93961 42554 ft 494 kts 243°
2026-05-07 23:25 34.52049 78.86665 42543 ft 494 kts 243°
2026-05-07 23:25 34.48721 78.79373 42543 ft 494 kts 243°
2026-05-07 23:26 34.45930 78.73268 42548 ft 494 kts 243°
2026-05-07 23:26 34.42595 78.65985 42536 ft 494 kts 243°
2026-05-07 23:27 34.37586 78.55080 42521 ft 494 kts 243°
2026-05-07 23:27 34.34233 78.47812 42521 ft 494 kts 243°
2026-05-07 23:28 34.30887 78.40561 42527 ft 493 kts 243°
2026-05-07 23:28 34.27577 78.33398 42517 ft 490 kts 243°
2026-05-07 23:29 34.24241 78.26182 42493 ft 492 kts 243°
2026-05-07 23:29 34.20884 78.18954 42498 ft 494 kts 243°
2026-05-07 23:30 34.17516 78.11716 42494 ft 494 kts 243°
2026-05-07 23:30 34.14156 78.04502 42484 ft 492 kts 243°
2026-05-07 23:31 34.10792 77.97307 42469 ft 492 kts 243°
2026-05-07 23:31 34.07427 77.90135 42480 ft 491 kts 243°
2026-05-07 23:32 34.04072 77.82976 42478 ft 491 kts 243°
2026-05-07 23:32 34.00711 77.75812 42458 ft 491 kts 243°
2026-05-07 23:33 33.97340 77.68648 42457 ft 492 kts 243°
2026-05-07 23:33 33.93961 77.61491 42454 ft 491 kts 242°
2026-05-07 23:34 33.90576 77.54333 42452 ft 492 kts 243°
2026-05-07 23:34 33.87180 77.47173 42460 ft 493 kts 243°
2026-05-07 23:35 33.83783 77.40020 42458 ft 491 kts 243°
2026-05-07 23:35 33.80393 77.32882 42448 ft 491 kts 243°
2026-05-07 23:36 33.76995 77.25754 42447 ft 492 kts 243°
2026-05-07 23:36 33.73585 77.18620 42406 ft 491 kts 243°
2026-05-07 23:37 33.70197 77.11549 42459 ft 486 kts 243°
2026-05-07 23:37 33.66817 77.04493 42423 ft 489 kts 243°
2026-05-07 23:38 33.63438 76.97452 42436 ft 487 kts 243°
2026-05-07 23:38 33.60064 76.90445 42415 ft 489 kts 242°
2026-05-07 23:39 33.56627 76.83330 42414 ft 490 kts 242°
2026-05-07 23:39 33.53206 76.76249 42402 ft 490 kts 242°
2026-05-07 23:40 33.49805 76.69222 42399 ft 491 kts 243°
2026-05-07 23:40 33.46378 76.62160 42342 ft 491 kts 242°
2026-05-07 23:41 33.42945 76.55100 42339 ft 491 kts 242°
2026-05-07 23:41 33.39506 76.48040 42286 ft 490 kts 242°
2026-05-07 23:42 33.36072 76.41003 42293 ft 490 kts 242°
2026-05-07 23:42 33.32625 76.33967 42208 ft 490 kts 242°
2026-05-07 23:43 33.29183 76.26941 42198 ft 490 kts 242°
2026-05-07 23:43 33.25739 76.19917 42162 ft 490 kts 242°
2026-05-07 23:44 33.22282 76.12891 42124 ft 490 kts 242°
2026-05-07 23:44 33.18826 76.05877 42132 ft 490 kts 242°
2026-05-07 23:45 33.15358 75.98857 42129 ft 491 kts 242°
2026-05-07 23:45 33.11890 75.91845 42085 ft 491 kts 242°
2026-05-07 23:46 33.08419 75.84848 42074 ft 490 kts 242°
2026-05-07 23:46 33.04953 75.77855 42054 ft 490 kts 242°
2026-05-07 23:47 33.01509 75.70924 42069 ft 489 kts 242°
2026-05-07 23:47 32.98028 75.63949 42034 ft 490 kts 241°
2026-05-07 23:48 32.94552 75.56989 42041 ft 489 kts 242°
2026-05-07 23:48 32.91073 75.50041 42049 ft 489 kts 241°
2026-05-07 23:49 32.87590 75.43096 42015 ft 489 kts 241°
2026-05-07 23:49 32.84106 75.36156 42014 ft 489 kts 241°
2026-05-07 23:50 32.80610 75.29208 41952 ft 489 kts 241°
2026-05-07 23:50 32.77111 75.22273 41954 ft 489 kts 241°
2026-05-07 23:51 32.73611 75.15345 41927 ft 489 kts 241°
2026-05-07 23:51 32.70105 75.08418 41930 ft 489 kts 241°
2026-05-07 23:52 32.66597 75.01499 41886 ft 489 kts 241°
2026-05-07 23:52 32.63088 74.94591 41885 ft 489 kts 241°
2026-05-07 23:53 32.59576 74.87690 41884 ft 489 kts 241°
2026-05-07 23:53 32.56061 74.80797 41884 ft 488 kts 241°
2026-05-07 23:54 32.52546 74.73916 41879 ft 488 kts 241°
2026-05-07 23:54 32.49020 74.67025 41876 ft 489 kts 241°
2026-05-07 23:55 32.45495 74.60152 41876 ft 488 kts 241°
2026-05-07 23:55 32.41972 74.53294 41880 ft 487 kts 241°
2026-05-07 23:56 32.38471 74.46490 41881 ft 487 kts 241°
2026-05-07 23:56 32.34944 74.39647 41881 ft 487 kts 241°
2026-05-07 23:57 32.31413 74.32812 41873 ft 487 kts 241°
2026-05-07 23:57 32.27880 74.25985 41877 ft 487 kts 241°
2026-05-07 23:58 32.24343 74.19160 41865 ft 487 kts 241°
2026-05-07 23:58 32.20799 74.12335 41865 ft 487 kts 241°
2026-05-07 23:59 32.17253 74.05519 41859 ft 487 kts 241°
2026-05-07 23:59 32.13702 73.98706 41846 ft 487 kts 242°
2026-05-08 00:00 32.10159 73.91924 41849 ft 485 kts 242°
2026-05-08 00:00 32.06618 73.85154 41856 ft 485 kts 242°
2026-05-08 00:01 32.03078 73.78396 41853 ft 485 kts 242°
2026-05-08 00:01 31.99534 73.71644 41846 ft 485 kts 242°
2026-05-08 00:02 31.95986 73.64897 41818 ft 484 kts 242°
2026-05-08 00:02 31.92435 73.58161 41844 ft 484 kts 242°
2026-05-08 00:03 31.88889 73.51441 41826 ft 483 kts 242°
2026-05-08 00:03 31.85338 73.44722 41822 ft 483 kts 242°
2026-05-08 00:04 31.81788 73.38017 41821 ft 483 kts 242°
2026-05-08 00:04 31.78230 73.31312 41829 ft 483 kts 242°
2026-05-08 00:05 31.74682 73.24640 41823 ft 481 kts 242°
2026-05-08 00:05 31.71137 73.17984 41820 ft 480 kts 242°
2026-05-08 00:06 31.67597 73.11342 41813 ft 480 kts 242°
2026-05-08 00:06 31.64052 73.04704 41814 ft 480 kts 242°
2026-05-08 00:07 31.60502 72.98071 41818 ft 480 kts 242°
2026-05-08 00:07 31.56954 72.91454 41818 ft 479 kts 242°
2026-05-08 00:08 31.53408 72.84853 41818 ft 478 kts 242°
2026-05-08 00:08 31.49867 72.78269 41814 ft 478 kts 242°
2026-05-08 00:09 31.46922 72.72801 41812 ft 477 kts 242°
2026-05-08 00:09 31.42798 72.65160 41803 ft 477 kts 242°
2026-05-08 00:10 31.39251 72.58603 41785 ft 475 kts 243°
2026-05-08 00:10 31.35719 72.52085 41790 ft 474 kts 243°
2026-05-08 00:11 31.32188 72.45575 41791 ft 473 kts 243°
2026-05-08 00:11 31.28660 72.39080 41785 ft 473 kts 243°
2026-05-08 00:12 31.25127 72.32590 41782 ft 473 kts 243°
2026-05-08 00:12 31.21593 72.26107 41782 ft 473 kts 243°
2026-05-08 00:13 31.18656 72.20730 41779 ft 472 kts 243°
2026-05-08 00:13 31.15126 72.14277 41769 ft 472 kts 243°
2026-05-08 00:14 31.11593 72.07826 41783 ft 471 kts 243°
2026-05-08 00:14 31.08058 72.01384 41777 ft 471 kts 243°
2026-05-08 00:15 31.04521 71.94949 41770 ft 471 kts 243°
2026-05-08 00:15 31.00984 71.88530 41769 ft 470 kts 242°
2026-05-08 00:16 30.97452 71.82128 41773 ft 469 kts 242°
2026-05-08 00:16 30.93923 71.75732 41774 ft 469 kts 242°
2026-05-08 00:17 30.90387 71.69339 41772 ft 470 kts 242°
2026-05-08 00:17 30.86846 71.62948 41771 ft 470 kts 242°
2026-05-08 00:18 30.83303 71.56563 41771 ft 470 kts 242°
2026-05-08 00:18 30.79757 71.50187 41771 ft 469 kts 242°
2026-05-08 00:19 30.76207 71.43812 41771 ft 470 kts 242°
2026-05-08 00:19 30.72657 71.37446 41771 ft 470 kts 242°
2026-05-08 00:20 30.69097 71.31074 41746 ft 470 kts 242°
2026-05-08 00:20 30.65540 71.24718 41771 ft 470 kts 242°
2026-05-08 00:21 30.61977 71.18360 41769 ft 470 kts 242°
2026-05-08 00:21 30.58409 71.12004 41769 ft 470 kts 242°
2026-05-08 00:22 30.54839 71.05653 41766 ft 470 kts 242°
2026-05-08 00:22 30.51262 70.99303 41771 ft 470 kts 242°
2026-05-08 00:23 30.47708 70.93001 41768 ft 470 kts 242°
2026-05-08 00:23 30.44125 70.86659 41760 ft 470 kts 242°
2026-05-08 00:24 30.40542 70.80328 41772 ft 470 kts 242°
2026-05-08 00:24 30.36955 70.73997 41775 ft 470 kts 242°
2026-05-08 00:25 30.33364 70.67672 41778 ft 470 kts 242°
2026-05-08 00:25 30.29769 70.61348 41774 ft 470 kts 242°
2026-05-08 00:26 30.26174 70.55034 41788 ft 470 kts 242°
2026-05-08 00:26 30.22575 70.48723 41779 ft 470 kts 242°
2026-05-08 00:27 30.18969 70.42411 41793 ft 470 kts 241°
2026-05-08 00:27 30.15360 70.36102 41810 ft 471 kts 242°
2026-05-08 00:28 30.11745 70.29794 41817 ft 471 kts 242°
2026-05-08 00:28 30.08127 70.23491 41809 ft 471 kts 241°
2026-05-08 00:29 30.04507 70.17193 41845 ft 471 kts 241°
2026-05-08 00:29 30.00884 70.10896 41841 ft 471 kts 241°
2026-05-08 00:30 29.97260 70.04609 41867 ft 471 kts 241°
2026-05-08 00:30 29.93635 69.98338 41853 ft 470 kts 241°
2026-05-08 00:31 29.90007 69.92067 41869 ft 470 kts 241°
2026-05-08 00:31 29.86376 69.85799 41852 ft 470 kts 241°
2026-05-08 00:32 29.82746 69.79544 41879 ft 469 kts 241°
2026-05-08 00:32 29.79118 69.73303 41864 ft 469 kts 241°
2026-05-08 00:33 29.75515 69.67108 41865 ft 469 kts 241°
2026-05-08 00:33 29.71881 69.60872 41871 ft 469 kts 241°
2026-05-08 00:34 29.68244 69.54643 41870 ft 469 kts 241°
2026-05-08 00:34 29.64604 69.48415 41851 ft 469 kts 240°
2026-05-08 00:35 29.60960 69.42191 41856 ft 469 kts 240°
2026-05-08 00:35 29.57316 69.35978 41855 ft 469 kts 240°
2026-05-08 00:36 29.53669 69.29769 41857 ft 469 kts 240°
2026-05-08 00:36 29.50017 69.23560 41838 ft 469 kts 240°
2026-05-08 00:37 29.46362 69.17356 41832 ft 469 kts 240°
2026-05-08 00:38 29.40877 69.08063 41840 ft 469 kts 240°
2026-05-08 00:38 29.37217 69.01872 41832 ft 469 kts 240°
2026-05-08 00:39 29.33557 68.95692 41822 ft 469 kts 240°
2026-05-08 00:39 29.29892 68.89514 41827 ft 469 kts 240°
2026-05-08 00:40 29.26222 68.83335 41808 ft 468 kts 240°
2026-05-08 00:40 29.22560 68.77178 41811 ft 468 kts 240°
2026-05-08 00:41 29.18893 68.71021 41778 ft 468 kts 240°
2026-05-08 00:41 29.15220 68.64864 41777 ft 469 kts 240°
2026-05-08 00:42 29.11565 68.58747 41760 ft 469 kts 240°
2026-05-08 00:42 29.07882 68.52595 41747 ft 469 kts 240°
2026-05-08 00:43 29.04198 68.46448 41750 ft 469 kts 240°
2026-05-08 00:43 29.00511 68.40300 41741 ft 469 kts 240°
2026-05-08 00:44 28.96823 68.34164 41738 ft 469 kts 240°
2026-05-08 00:44 28.93131 68.28031 41733 ft 469 kts 240°
2026-05-08 00:45 28.89436 68.21902 41729 ft 469 kts 240°
2026-05-08 00:45 28.85738 68.15777 41728 ft 468 kts 240°
2026-05-08 00:46 28.82041 68.09662 41730 ft 468 kts 240°
2026-05-08 00:46 28.78350 68.03561 41735 ft 467 kts 240°
2026-05-08 00:47 28.74656 67.97468 41733 ft 467 kts 240°
2026-05-08 00:47 28.70956 67.91379 41730 ft 467 kts 240°
2026-05-08 00:48 28.67255 67.85293 41728 ft 467 kts 240°
2026-05-08 00:48 28.63549 67.79208 41734 ft 467 kts 240°
2026-05-08 00:49 28.59843 67.73130 41735 ft 467 kts 240°
2026-05-08 00:49 28.56134 67.67056 41739 ft 467 kts 239°
2026-05-08 00:50 28.52447 67.61028 41736 ft 468 kts 239°
2026-05-08 00:50 28.48732 67.54962 41738 ft 468 kts 239°
2026-05-08 00:51 28.45013 67.48898 41741 ft 467 kts 239°
2026-05-08 00:51 28.41290 67.42837 41746 ft 468 kts 239°
2026-05-08 00:52 28.37560 67.36772 41768 ft 468 kts 239°
2026-05-08 00:52 28.33833 67.30732 41771 ft 467 kts 239°
2026-05-08 00:53 28.30109 67.24684 41803 ft 468 kts 239°
2026-05-08 00:53 28.26369 67.18628 41798 ft 469 kts 239°
2026-05-08 00:54 28.22620 67.12571 41838 ft 469 kts 239°
2026-05-08 00:54 28.18873 67.06524 41845 ft 468 kts 239°
2026-05-08 00:55 28.15127 67.00483 41863 ft 468 kts 239°
2026-05-08 00:55 28.11380 66.94458 41869 ft 468 kts 239°
2026-05-08 00:56 28.07655 66.88462 41869 ft 469 kts 239°
2026-05-08 00:56 28.03897 66.82428 41876 ft 469 kts 239°
2026-05-08 00:57 28.00140 66.76403 41917 ft 468 kts 239°
2026-05-08 00:57 27.96376 66.70378 41907 ft 469 kts 239°
2026-05-08 00:58 27.92606 66.64356 41907 ft 469 kts 239°
2026-05-08 00:58 27.88834 66.58335 41912 ft 469 kts 239°
2026-05-08 00:59 27.85061 66.52317 41912 ft 469 kts 238°
2026-05-08 00:59 27.81282 66.46301 41914 ft 469 kts 238°
2026-05-08 01:00 27.77502 66.40292 41916 ft 469 kts 238°
2026-05-08 01:00 27.73720 66.34290 41919 ft 469 kts 238°
2026-05-08 01:01 27.69935 66.28288 41917 ft 469 kts 238°
2026-05-08 01:01 27.66151 66.22297 41911 ft 468 kts 238°
2026-05-08 01:02 27.62375 66.16328 41926 ft 467 kts 238°
2026-05-08 01:02 27.59238 66.11374 41915 ft 467 kts 238°
2026-05-08 01:03 27.55461 66.05417 41909 ft 467 kts 238°
2026-05-08 01:03 27.51679 65.99463 41928 ft 467 kts 238°
2026-05-08 01:04 27.47895 65.93512 41905 ft 467 kts 238°
2026-05-08 01:04 27.44117 65.87576 41898 ft 466 kts 238°
2026-05-08 01:05 27.40331 65.81638 41919 ft 466 kts 238°
2026-05-08 01:05 27.36548 65.75713 41909 ft 466 kts 238°
2026-05-08 01:06 27.32760 65.69787 41914 ft 466 kts 238°
2026-05-08 01:06 27.28970 65.63867 41902 ft 466 kts 237°
2026-05-08 01:07 27.25190 65.57967 41902 ft 464 kts 237°
2026-05-08 01:07 27.21415 65.52087 41904 ft 464 kts 237°
2026-05-08 01:08 27.17658 65.46240 41897 ft 465 kts 237°
2026-05-08 01:08 27.13868 65.40350 41897 ft 465 kts 237°
2026-05-08 01:09 27.10073 65.34461 41899 ft 465 kts 237°
2026-05-08 01:09 27.06275 65.28575 41887 ft 466 kts 237°
2026-05-08 01:10 27.02478 65.22697 41893 ft 465 kts 237°
2026-05-08 01:10 26.98678 65.16824 41888 ft 465 kts 237°
2026-05-08 01:11 26.94875 65.10954 41894 ft 465 kts 237°
2026-05-08 01:11 26.91069 65.05085 41877 ft 465 kts 236°
2026-05-08 01:12 26.87259 64.99218 41880 ft 466 kts 236°
2026-05-08 01:12 26.83441 64.93347 41879 ft 466 kts 236°
2026-05-08 01:13 26.79619 64.87478 41879 ft 467 kts 236°
2026-05-08 01:13 26.75791 64.81607 41866 ft 467 kts 236°
2026-05-08 01:14 26.71964 64.75747 41871 ft 467 kts 236°
2026-05-08 01:14 26.68132 64.69884 41870 ft 467 kts 236°
2026-05-08 01:15 26.64296 64.64025 41870 ft 467 kts 236°
2026-05-08 01:15 26.60458 64.58169 41859 ft 467 kts 236°
2026-05-08 01:16 26.56616 64.52315 41861 ft 467 kts 236°
2026-05-08 01:16 26.52800 64.46509 41843 ft 467 kts 236°
2026-05-08 01:17 26.48950 64.40663 41851 ft 468 kts 236°
2026-05-08 01:17 26.45089 64.34804 41824 ft 469 kts 235°
2026-05-08 01:18 26.41228 64.28945 41834 ft 469 kts 235°
2026-05-08 01:18 26.37359 64.23085 41825 ft 469 kts 235°
2026-05-08 01:19 26.33486 64.17231 41827 ft 469 kts 235°
2026-05-08 01:19 26.29610 64.11379 41814 ft 469 kts 235°
2026-05-08 01:20 26.25732 64.05530 41820 ft 469 kts 235°
2026-05-08 01:20 26.21852 63.99684 41814 ft 469 kts 235°
2026-05-08 01:21 26.17966 63.93839 41809 ft 470 kts 235°
2026-05-08 01:21 26.14075 63.87995 41799 ft 470 kts 234°
2026-05-08 01:22 26.10178 63.82146 41799 ft 471 kts 234°
2026-05-08 01:22 26.06274 63.76297 41797 ft 471 kts 234°
2026-05-08 01:23 26.02366 63.70448 41787 ft 471 kts 234°
2026-05-08 01:23 25.98449 63.64594 41783 ft 472 kts 234°
2026-05-08 01:24 25.94553 63.58778 41772 ft 472 kts 234°
2026-05-08 01:24 25.90631 63.52932 41772 ft 472 kts 234°
2026-05-08 01:25 25.86707 63.47088 41782 ft 472 kts 234°
2026-05-08 01:25 25.82780 63.41247 41772 ft 472 kts 234°
2026-05-08 01:26 25.78846 63.35404 41767 ft 473 kts 234°
2026-05-08 01:26 25.74907 63.29561 41767 ft 473 kts 234°
2026-05-08 01:27 25.70963 63.23722 41761 ft 473 kts 234°
2026-05-08 01:27 25.67019 63.17890 41758 ft 473 kts 234°
2026-05-08 01:28 25.63073 63.12053 41754 ft 473 kts 234°
2026-05-08 01:28 25.59126 63.06225 41752 ft 473 kts 234°
2026-05-08 01:29 25.55175 63.00400 41748 ft 473 kts 234°
2026-05-08 01:29 25.51222 62.94580 41748 ft 473 kts 234°
2026-05-08 01:30 25.47265 62.88760 41746 ft 473 kts 234°
2026-05-08 01:30 25.43307 62.82947 41722 ft 473 kts 234°
2026-05-08 01:31 25.39346 62.77137 41733 ft 473 kts 233°
2026-05-08 01:31 25.35380 62.71325 41729 ft 474 kts 233°
2026-05-08 01:32 25.31400 62.65502 41734 ft 475 kts 233°
2026-05-08 01:32 25.27416 62.59679 41728 ft 475 kts 233°
2026-05-08 01:33 25.23429 62.53860 41727 ft 475 kts 233°
2026-05-08 01:33 25.19437 62.48039 41725 ft 475 kts 233°
2026-05-08 01:34 25.15440 62.42220 41724 ft 476 kts 233°
2026-05-08 01:34 25.11443 62.36406 41721 ft 476 kts 233°
2026-05-08 01:35 25.07466 62.30630 41720 ft 476 kts 233°
2026-05-08 01:35 25.03462 62.24820 41719 ft 476 kts 233°
2026-05-08 01:36 24.99456 62.19015 41719 ft 476 kts 233°
2026-05-08 01:36 24.95443 62.13207 41714 ft 476 kts 233°
2026-05-08 01:37 24.91425 62.07399 41716 ft 477 kts 233°
2026-05-08 01:37 24.87397 62.01584 41719 ft 477 kts 233°
2026-05-08 01:38 24.83369 61.95775 41716 ft 477 kts 233°
2026-05-08 01:38 24.79339 61.89971 41712 ft 478 kts 233°
2026-05-08 01:39 24.75301 61.84161 41715 ft 478 kts 233°
2026-05-08 01:39 24.71258 61.78353 41718 ft 478 kts 232°
2026-05-08 01:40 24.67214 61.72549 41718 ft 478 kts 232°
2026-05-08 01:40 24.63168 61.66750 41717 ft 478 kts 232°
2026-05-08 01:41 24.59146 61.60993 41719 ft 478 kts 232°
2026-05-08 01:41 24.55093 61.55195 41717 ft 479 kts 232°
2026-05-08 01:42 24.51032 61.49395 41721 ft 479 kts 232°
2026-05-08 01:42 24.46967 61.43596 41722 ft 479 kts 232°
2026-05-08 01:43 24.42878 61.37756 41714 ft 479 kts 233°
2026-05-08 01:43 24.39689 61.31451 41726 ft 476 kts 249°
2026-05-08 01:44 24.37896 61.24467 41728 ft 476 kts 255°
2026-05-08 01:44 24.36431 61.17388 41726 ft 476 kts 256°
2026-05-08 01:45 24.35001 61.10300 41729 ft 476 kts 256°
2026-05-08 01:45 24.33544 61.03222 41731 ft 476 kts 256°
2026-05-08 01:46 24.32065 60.96146 41732 ft 476 kts 256°
2026-05-08 01:46 24.30576 60.89063 41731 ft 477 kts 256°
2026-05-08 01:47 24.29084 60.81984 41732 ft 477 kts 256°
2026-05-08 01:47 24.27590 60.74903 41728 ft 477 kts 256°
2026-05-08 01:48 24.25342 60.64281 41732 ft 477 kts 256°
2026-05-08 01:48 24.23838 60.57196 41733 ft 477 kts 255°
2026-05-08 01:49 24.22339 60.50155 41734 ft 477 kts 255°
2026-05-08 01:49 24.20829 60.43072 41735 ft 478 kts 255°
2026-05-08 01:50 24.19315 60.35992 41736 ft 478 kts 255°
2026-05-08 01:50 24.17796 60.28906 41739 ft 478 kts 255°
2026-05-08 01:51 24.16522 60.22973 41740 ft 478 kts 255°
2026-05-08 01:51 24.14751 60.14749 41740 ft 478 kts 255°
2026-05-08 01:52 24.13471 60.08817 41738 ft 478 kts 255°
2026-05-08 01:52 24.11939 60.01737 41745 ft 478 kts 255°
2026-05-08 01:53 24.10405 59.94659 41740 ft 478 kts 255°
2026-05-08 01:53 24.08867 59.87585 41741 ft 478 kts 255°
2026-05-08 01:54 24.07337 59.80559 41744 ft 478 kts 255°
2026-05-08 01:54 24.05857 59.73466 41738 ft 478 kts 258°
2026-05-08 01:55 24.05569 59.66216 41748 ft 479 kts 274°
2026-05-08 01:55 24.06717 59.59031 41751 ft 480 kts 280°
2026-05-08 01:56 24.08336 59.51933 41746 ft 481 kts 282°
2026-05-08 01:56 24.09981 59.44849 41750 ft 480 kts 281°
2026-05-08 01:57 24.11567 59.37750 41749 ft 480 kts 281°
2026-05-08 01:57 24.13115 59.30650 41751 ft 479 kts 280°
2026-05-08 01:58 24.14653 59.23554 41751 ft 479 kts 280°
2026-05-08 01:58 24.16189 59.16457 41754 ft 479 kts 280°
2026-05-08 01:59 24.17720 59.09349 41753 ft 479 kts 280°
2026-05-08 01:59 24.19245 59.02243 41754 ft 479 kts 280°
2026-05-08 02:00 24.20767 58.95139 41760 ft 479 kts 280°
2026-05-08 02:00 24.22288 58.88027 41759 ft 479 kts 280°
2026-05-08 02:01 24.23805 58.80912 41759 ft 479 kts 280°
2026-05-08 02:01 24.25320 58.73799 41757 ft 479 kts 280°
2026-05-08 02:02 24.26819 58.66738 41761 ft 479 kts 280°
2026-05-08 02:02 24.28326 58.59633 41760 ft 479 kts 280°
2026-05-08 02:03 24.29828 58.52527 41759 ft 479 kts 280°
2026-05-08 02:03 24.31324 58.45420 41762 ft 479 kts 280°
2026-05-08 02:04 24.32819 58.38305 41764 ft 479 kts 279°
2026-05-08 02:04 24.34313 58.31178 41767 ft 479 kts 279°
2026-05-08 02:05 24.35800 58.24073 41766 ft 479 kts 279°
2026-05-08 02:05 24.37287 58.16947 41765 ft 479 kts 279°
2026-05-08 02:06 24.38772 58.09818 41770 ft 479 kts 279°
2026-05-08 02:06 24.40250 58.02697 41768 ft 478 kts 279°
2026-05-08 02:07 24.41725 57.95579 41766 ft 478 kts 279°
2026-05-08 02:07 24.43196 57.88462 41768 ft 479 kts 279°
2026-05-08 02:08 24.44665 57.81333 41771 ft 479 kts 279°
2026-05-08 02:08 24.46132 57.74196 41771 ft 479 kts 279°
2026-05-08 02:09 24.47595 57.67062 41775 ft 479 kts 279°
2026-05-08 02:09 24.49056 57.59926 41775 ft 479 kts 279°
2026-05-08 02:10 24.50511 57.52795 41773 ft 479 kts 279°
2026-05-08 02:10 24.51968 57.45658 41778 ft 479 kts 279°
2026-05-08 02:11 24.53415 57.38520 41774 ft 479 kts 279°
2026-05-08 02:11 24.54860 57.31375 41775 ft 479 kts 278°
2026-05-08 02:12 24.56302 57.24233 41778 ft 479 kts 278°
2026-05-08 02:12 24.57741 57.17088 41778 ft 479 kts 278°
2026-05-08 02:13 24.59177 57.09943 41784 ft 479 kts 278°
2026-05-08 02:13 24.60600 57.02842 41781 ft 479 kts 278°
2026-05-08 02:14 24.62041 56.95638 41787 ft 479 kts 278°
2026-05-08 02:14 24.63456 56.88539 41781 ft 478 kts 278°
2026-05-08 02:15 24.64841 56.81402 41788 ft 477 kts 276°
2026-05-08 02:15 24.65846 56.74208 41788 ft 476 kts 274°
2026-05-08 02:16 24.66741 56.66994 41791 ft 477 kts 274°
2026-05-08 02:16 24.67683 56.59776 41802 ft 477 kts 274°
2026-05-08 02:17 24.68663 56.52567 41803 ft 477 kts 274°
2026-05-08 02:17 24.69651 56.45354 41823 ft 477 kts 274°
2026-05-08 02:18 24.70631 56.38145 41826 ft 477 kts 274°
2026-05-08 02:18 24.71606 56.30931 41832 ft 477 kts 274°
2026-05-08 02:19 24.72657 56.23734 41832 ft 477 kts 275°
2026-05-08 02:19 24.73818 56.16561 41814 ft 476 kts 275°
2026-05-08 02:20 24.74975 56.09386 41818 ft 477 kts 275°
2026-05-08 02:20 24.76108 56.02200 41821 ft 477 kts 275°
2026-05-08 02:21 24.77227 55.95019 41831 ft 476 kts 275°
2026-05-08 02:21 24.78343 55.87830 41828 ft 477 kts 275°
2026-05-08 02:22 24.79448 55.80697 41837 ft 476 kts 275°
2026-05-08 02:22 24.80558 55.73513 41838 ft 476 kts 275°
2026-05-08 02:23 24.81664 55.66323 41847 ft 476 kts 275°
2026-05-08 02:23 24.82766 55.59141 41835 ft 475 kts 275°
2026-05-08 02:24 24.83863 55.51968 41842 ft 475 kts 275°
2026-05-08 02:24 24.84958 55.44789 41834 ft 475 kts 275°
2026-05-08 02:25 24.86047 55.37616 41829 ft 475 kts 274°
2026-05-08 02:25 24.87133 55.30439 41827 ft 475 kts 274°
2026-05-08 02:26 24.88216 55.23266 41830 ft 475 kts 274°
2026-05-08 02:26 24.89283 55.16175 41830 ft 476 kts 274°
2026-05-08 02:27 24.90360 55.08984 41829 ft 476 kts 274°
2026-05-08 02:27 24.91435 55.01791 41827 ft 475 kts 274°
2026-05-08 02:28 24.92504 54.94614 41820 ft 474 kts 274°
2026-05-08 02:28 24.93569 54.87440 41814 ft 474 kts 274°
2026-05-08 02:29 24.94628 54.80273 41811 ft 474 kts 274°
2026-05-08 02:29 24.95686 54.73096 41811 ft 474 kts 274°
2026-05-08 02:30 24.96740 54.65917 41810 ft 475 kts 274°
2026-05-08 02:30 24.97792 54.58731 41813 ft 475 kts 274°
2026-05-08 02:31 24.98840 54.51546 41813 ft 475 kts 274°
2026-05-08 02:31 24.99883 54.44372 41812 ft 475 kts 274°
2026-05-08 02:32 25.00974 54.37635 41812 ft 475 kts 275°
2026-05-08 02:32 25.02154 54.30492 41815 ft 473 kts 275°
2026-05-08 02:33 25.03293 54.23397 41813 ft 473 kts 274°
2026-05-08 02:33 25.04424 54.16255 41816 ft 473 kts 274°
2026-05-08 02:34 25.05550 54.09111 41816 ft 473 kts 274°
2026-05-08 02:34 25.06670 54.01968 41816 ft 473 kts 274°
2026-05-08 02:35 25.07788 53.94817 41815 ft 473 kts 274°
2026-05-08 02:35 25.08900 53.87679 41816 ft 473 kts 274°
2026-05-08 02:36 25.09434 53.80516 41822 ft 464 kts 262°
2026-05-08 02:36 25.08794 53.73468 41828 ft 461 kts 258°
2026-05-08 02:37 25.07855 53.66472 41820 ft 462 kts 257°
2026-05-08 02:37 25.06908 53.59459 41819 ft 462 kts 257°
2026-05-08 02:38 25.06000 53.52439 41823 ft 462 kts 257°
2026-05-08 02:38 25.05112 53.45418 41820 ft 462 kts 257°
2026-05-08 02:39 25.04223 53.38397 41814 ft 461 kts 257°
2026-05-08 02:39 25.03495 53.32642 41823 ft 452 kts 257°
2026-05-08 02:40 25.03061 53.29225 41597 ft 448 kts 257°
2026-05-08 02:40 25.02628 53.25828 41347 ft 448 kts 257°
2026-05-08 02:40 25.02189 53.22414 41100 ft 449 kts 257°
2026-05-08 02:40 25.01609 53.17920 40258 ft 447 kts 257°
2026-05-08 02:41 25.01312 53.15631 39758 ft 447 kts 257°
2026-05-08 02:41 25.00871 53.12232 39017 ft 448 kts 257°
2026-05-08 02:41 25.00426 53.08820 38171 ft 451 kts 257°
2026-05-08 02:41 24.99976 53.05387 37258 ft 454 kts 257°
2026-05-08 02:42 24.99526 53.01949 36817 ft 453 kts 257°
2026-05-08 02:42 24.99080 52.98532 36291 ft 448 kts 257°
2026-05-08 02:42 24.98635 52.95129 35481 ft 449 kts 258°
2026-05-08 02:42 24.98185 52.91714 34581 ft 452 kts 258°
2026-05-08 02:43 24.97729 52.88267 33628 ft 457 kts 258°
2026-05-08 02:43 24.97272 52.84804 32870 ft 455 kts 258°
2026-05-08 02:43 24.96818 52.81357 31967 ft 456 kts 258°
2026-05-08 02:43 24.96361 52.77890 30906 ft 460 kts 259°
2026-05-08 02:44 24.95898 52.74366 29841 ft 467 kts 259°
2026-05-08 02:44 24.95438 52.70831 28798 ft 467 kts 259°
2026-05-08 02:44 24.94977 52.67280 27827 ft 467 kts 259°
2026-05-08 02:44 24.94523 52.63788 26896 ft 467 kts 259°
2026-05-08 02:45 24.94055 52.60197 26000 ft 466 kts 259°
2026-05-08 02:45 24.93601 52.56722 25215 ft 464 kts 259°
2026-05-08 02:45 24.93140 52.53217 24447 ft 461 kts 259°
2026-05-08 02:45 24.92681 52.49740 23717 ft 457 kts 259°
2026-05-08 02:46 24.92223 52.46290 22886 ft 454 kts 259°
2026-05-08 02:46 24.91785 52.42862 22046 ft 450 kts 259°
2026-05-08 02:46 24.91352 52.39458 21235 ft 446 kts 259°
2026-05-08 02:46 24.90916 52.36093 20440 ft 442 kts 259°
2026-05-08 02:47 24.90477 52.32756 19659 ft 439 kts 259°
2026-05-08 02:47 24.90037 52.29448 18912 ft 435 kts 259°
2026-05-08 02:47 24.89598 52.26163 18217 ft 430 kts 259°
2026-05-08 02:47 24.89264 52.22900 17388 ft 428 kts 263°
2026-05-08 02:48 24.89058 52.19655 16751 ft 421 kts 263°
2026-05-08 02:48 24.88862 52.16499 16444 ft 405 kts 263°
2026-05-08 02:48 24.88659 52.13466 16184 ft 390 kts 262°
2026-05-08 02:48 24.88459 52.10595 15836 ft 361 kts 262°
2026-05-08 02:49 24.88272 52.07937 15413 ft 336 kts 262°
2026-05-08 02:49 24.88093 52.05425 14734 ft 324 kts 262°
2026-05-08 02:49 24.87914 52.02978 13910 ft 319 kts 262°
2026-05-08 02:49 24.87735 52.00557 12984 ft 316 kts 262°
2026-05-08 02:50 24.87555 51.98154 12066 ft 313 kts 263°
2026-05-08 02:50 24.87378 51.95780 11174 ft 310 kts 262°
2026-05-08 02:50 24.87202 51.93430 10340 ft 306 kts 263°
2026-05-08 02:50 24.87028 51.91112 9541 ft 301 kts 263°
2026-05-08 02:51 24.86855 51.88818 8791 ft 302 kts 263°
2026-05-08 02:51 24.86680 51.86535 8441 ft 295 kts 263°
2026-05-08 02:51 24.86513 51.84331 8049 ft 291 kts 263°
2026-05-08 02:51 24.86344 51.82122 7625 ft 288 kts 263°
2026-05-08 02:52 24.86179 51.79940 7210 ft 285 kts 262°
2026-05-08 02:52 24.86143 51.77765 6717 ft 285 kts 273°
2026-05-08 02:52 24.86816 51.75723 6252 ft 287 kts 302°
2026-05-08 02:52 24.88254 51.74279 5839 ft 286 kts 326°
2026-05-08 02:53 24.90014 51.73277 5389 ft 284 kts 331°
2026-05-08 02:53 24.91798 51.72348 4947 ft 282 kts 332°
2026-05-08 02:53 24.93558 51.71429 4572 ft 278 kts 332°
2026-05-08 02:53 24.95292 51.70517 4155 ft 274 kts 333°
2026-05-08 02:54 24.96997 51.69612 3752 ft 270 kts 333°
2026-05-08 02:54 24.98665 51.68725 3491 ft 261 kts 333°
2026-05-08 02:54 25.00270 51.67903 3350 ft 248 kts 335°
2026-05-08 02:54 25.01814 51.67182 3270 ft 234 kts 337°
2026-05-08 02:55 25.03284 51.66512 3191 ft 223 kts 338°
2026-05-08 02:55 25.05989 51.65316 3042 ft 193 kts 340°
2026-05-08 02:55 25.07175 51.64807 3033 ft 173 kts 339°
2026-05-08 02:56 25.08234 51.64355 3042 ft 153 kts 340°
2026-05-08 02:56 25.09193 51.63948 3007 ft 146 kts 340°
2026-05-08 02:56 25.10145 51.63553 2849 ft 146 kts 338°
2026-05-08 02:56 25.11089 51.63136 2640 ft 145 kts 338°
2026-05-08 02:57 25.12016 51.62720 2439 ft 142 kts 338°
2026-05-08 02:57 25.12916 51.62320 2270 ft 136 kts 340°
2026-05-08 02:57 25.13764 51.61948 2101 ft 128 kts 340°
2026-05-08 02:57 25.14584 51.61587 1949 ft 127 kts 339°
2026-05-08 02:58 25.15408 51.61222 1782 ft 127 kts 340°
2026-05-08 02:58 25.16224 51.60862 1631 ft 125 kts 340°
2026-05-08 02:58 25.17023 51.60509 1480 ft 124 kts 338°
2026-05-08 02:58 25.17817 51.60158 1327 ft 123 kts 338°
2026-05-08 02:59 25.18610 51.59809 1166 ft 122 kts 338°
2026-05-08 02:59 25.19386 51.59468 1007 ft 121 kts 337°
2026-05-08 02:59 25.20163 51.59125 865 ft 120 kts 336°
2026-05-08 02:59 25.20927 51.58776 719 ft 119 kts 332°
2026-05-08 03:00 25.21700 51.58422 580 ft 122 kts 337°
2026-05-08 03:00 25.22488 51.58123 423 ft 118 kts 335°
2026-05-08 03:00 25.23244 51.57772 246 ft 117 kts 335°
2026-05-08 03:00 25.24009 51.57430 95 ft 121 kts 336°
2026-05-08 03:01 25.24781 51.57086 29 ft 116 kts 336°
2026-05-08 03:01 25.25427 51.56803 26 ft 79 kts 338°
2026-05-08 03:01 25.25811 51.56635 29 ft 46 kts 338°
2026-05-08 03:01 25.26065 51.56520 30 ft 33 kts 334°
2026-05-08 03:02 25.26206 51.56406 31 ft 15 kts 314°
2026-05-08 03:02 25.26275 51.56321 30 ft 10 kts 311°
2026-05-08 03:02 25.26296 51.56253 36 ft 10 kts 261°
2026-05-08 03:02 25.26271 51.56170 35 ft 13 kts 249°
2026-05-08 03:03 25.26252 51.56118 35 ft 0 kts 248°
2026-05-08 03:03 25.26248 51.56107 35 ft 5 kts 249°
2026-05-08 03:03 25.26243 51.56094 35 ft 0 kts 248°